.
WxDataArchive / Data Records for 2006-04-02
2006-04-01 April 2006 2006-04-03

Data Records for Sunday, 02 April 2006

Time	Temp	Chill	HIndex	Humid	Dewpt	 Wind 	HiWind	WindDir	Rain 	Barom 
-----	----	-----	------	-----	-----	------	------	-------	-----	----- 
00:00	44.2	44.2	44.2	71	35.4	0	1	292	0.00	30.073 
00:05	44.2	44.2	44.2	71	35.4	0	1	292	0.00	30.073 
00:10	44.1	44.1	44.1	71	35.3	0	1	292	0.00	30.073 
00:15	44.1	44.1	44.1	71	35.3	0	1	315	0.00	30.068 
00:20	44.1	44.1	44.1	72	35.7	0	0	---	0.00	30.068 
00:25	43.9	43.9	43.9	72	35.5	0	1	315	0.00	30.068 
00:30	43.9	43.9	43.9	72	35.5	0	0	---	0.00	30.080 
00:35	43.9	43.9	43.9	72	35.5	0	1	315	0.00	30.080 
00:40	43.8	43.8	43.8	71	35.0	0	1	315	0.00	30.080 
00:45	43.8	43.8	43.8	72	35.4	0	1	315	0.00	30.081 
00:50	43.8	43.8	43.8	72	35.4	0	1	315	0.00	30.081 
00:55	43.8	43.8	43.8	72	35.4	0	4	270	0.00	30.081 
01:00	43.8	43.8	43.8	72	35.4	0	1	270	0.00	30.078 
01:05	43.8	43.8	43.8	71	35.0	0	1	270	0.00	30.078 
01:10	43.8	43.8	43.8	72	35.4	0	1	270	0.00	30.078 
01:15	43.8	43.8	43.8	72	35.4	0	0	---	0.00	30.071 
01:20	43.6	43.6	43.6	72	35.2	0	1	270	0.00	30.071 
01:25	43.6	43.6	43.6	73	35.5	0	0	---	0.00	30.071 
01:30	43.5	43.5	43.5	73	35.4	0	0	---	0.00	30.067 
01:35	43.5	43.5	43.5	73	35.4	0	0	---	0.00	30.067 
01:40	43.5	43.5	43.5	73	35.4	0	1	270	0.00	30.067 
01:45	43.5	43.5	43.5	72	35.1	0	0	---	0.00	30.064 
01:50	43.3	43.3	43.3	73	35.2	0	0	---	0.00	30.064 
01:55	43.3	43.3	43.3	73	35.2	0	0	---	0.00	30.064 
03:00	43.3	43.3	43.3	73	35.2	0	0	---	0.00	30.067 
03:05	43.3	43.3	43.3	74	35.6	0	0	---	0.00	30.067 
03:10	43.3	43.3	43.3	74	35.6	0	0	---	0.00	30.067 
03:15	43.3	43.3	43.3	74	35.6	0	0	---	0.00	30.065 
03:20	43.3	43.3	43.3	73	35.2	0	0	---	0.00	30.065 
03:25	43.2	43.2	43.2	74	35.5	0	0	---	0.00	30.065 
03:30	43.2	43.2	43.2	73	35.1	0	0	---	0.00	30.068 
03:35	43.2	43.2	43.2	73	35.1	0	0	---	0.00	30.068 
03:40	43.2	43.2	43.2	74	35.5	0	0	---	0.00	30.068 
03:45	43.2	43.2	43.2	74	35.5	0	0	---	0.00	30.069 
03:50	43.2	43.2	43.2	74	35.5	0	0	---	0.00	30.069 
03:55	43.2	43.2	43.2	74	35.5	0	0	---	0.00	30.069 
04:00	43.2	43.2	43.2	73	35.1	0	0	---	0.00	30.071 
04:05	43.2	43.2	43.2	74	35.5	0	0	---	0.00	30.071 
04:10	43.2	43.2	43.2	74	35.5	0	0	---	0.00	30.071 
04:15	43.2	43.2	43.2	74	35.5	0	1	270	0.00	30.071 
04:20	43.1	43.1	43.1	74	35.4	0	0	---	0.00	30.071 
04:25	43.1	43.1	43.1	74	35.4	0	0	---	0.00	30.071 
04:30	43.1	43.1	43.1	74	35.4	0	0	---	0.00	30.070 
04:35	43.1	43.1	43.1	74	35.4	0	0	---	0.00	30.070 
04:40	43.1	43.1	43.1	74	35.4	0	0	---	0.00	30.070 
04:45	43.1	43.1	43.1	74	35.4	0	0	---	0.00	30.064 
04:50	43.1	43.1	43.1	74	35.4	0	0	---	0.00	30.064 
04:55	43.1	43.1	43.1	74	35.4	0	0	---	0.00	30.064 
05:00	43.1	43.1	43.1	75	35.7	0	0	---	0.00	30.069 
05:05	43.1	43.1	43.1	75	35.7	0	0	---	0.00	30.069 
05:10	42.9	42.9	42.9	75	35.5	0	0	---	0.00	30.069 
05:15	42.9	42.9	42.9	75	35.5	0	0	---	0.00	30.066 
05:20	42.9	42.9	42.9	75	35.5	0	0	---	0.00	30.066 
05:25	42.9	42.9	42.9	75	35.5	0	0	---	0.00	30.066 
05:30	42.9	42.9	42.9	75	35.5	0	0	---	0.00	30.067 
05:35	42.9	42.9	42.9	75	35.5	0	0	---	0.00	30.067 
05:40	42.9	42.9	42.9	75	35.5	0	0	---	0.00	30.067 
05:45	42.9	42.9	42.9	75	35.5	0	1	270	0.00	30.061 
05:50	43.1	43.1	43.1	75	35.7	0	2	270	0.00	30.061 
05:55	43.1	43.1	43.1	74	35.4	1	2	270	0.00	30.061 
06:00	43.2	43.2	43.2	74	35.5	1	2	270	0.00	30.049 
06:05	43.2	43.2	43.2	74	35.5	1	2	270	0.00	30.049 
06:10	43.1	43.1	43.1	75	35.7	1	3	270	0.00	30.049 
06:15	43.1	43.1	43.1	75	35.7	1	3	90	0.00	30.046 
06:20	42.9	42.9	42.9	75	35.5	1	2	90	0.00	30.046 
06:25	42.9	42.9	42.9	76	35.9	0	2	90	0.00	30.046 
06:30	42.9	42.9	42.9	76	35.9	0	1	90	0.00	30.057 
06:35	42.9	42.9	42.9	77	36.2	1	2	90	0.00	30.057 
06:40	42.9	42.9	42.9	77	36.2	1	2	90	0.00	30.057 
06:45	42.9	42.9	42.9	77	36.2	0	2	90	0.00	30.054 
06:50	42.9	42.9	42.9	77	36.2	0	1	90	0.00	30.054 
06:55	43.1	43.1	43.1	77	36.4	1	2	90	0.00	30.054 
07:00	43.1	43.1	43.1	77	36.4	0	2	90	0.00	30.057 
07:05	43.2	43.2	43.2	77	36.5	1	2	90	0.00	30.057 
07:10	43.2	43.2	43.2	78	36.8	0	1	90	0.00	30.057 
07:15	43.3	43.3	43.3	78	36.9	2	4	90	0.00	30.063 
07:20	43.5	43.5	43.5	79	37.4	2	4	112	0.00	30.063 
07:25	43.5	43.5	43.5	81	38.1	2	5	90	0.00	30.063 
07:30	43.5	43.5	43.5	82	38.4	2	6	112	0.00	30.062 
07:35	43.6	43.6	43.6	84	39.1	2	5	112	0.00	30.062 
07:40	43.6	43.6	43.6	85	39.4	3	6	90	0.00	30.062 
07:45	43.6	43.6	43.6	86	39.7	2	6	90	0.00	30.066 
07:50	43.6	43.6	43.6	87	40.0	2	4	112	0.00	30.066 
07:55	43.8	43.8	43.8	88	40.5	2	5	112	0.00	30.066 
08:00	43.8	43.8	43.8	89	40.8	2	5	90	0.00	30.071 
08:05	43.8	43.8	43.8	89	40.8	1	3	90	0.00	30.071 
08:10	43.9	43.9	43.9	89	40.9	2	6	90	0.00	30.071 
08:15	43.9	43.9	43.9	90	41.2	3	5	90	0.00	30.065 
08:20	43.9	41.8	43.9	90	41.2	4	7	112	0.00	30.065 
08:25	43.9	43.9	43.9	90	41.2	3	7	112	0.00	30.065 
08:30	43.9	41.8	43.9	89	40.9	4	7	90	0.00	30.052 
08:35	44.1	42.1	44.1	89	41.1	4	8	90	0.00	30.052 
08:40	44.1	42.1	44.1	89	41.1	4	9	112	0.00	30.052 
08:45	44.1	40.6	44.1	88	40.8	6	10	112	0.00	30.050 
08:50	44.1	41.3	44.1	88	40.8	5	10	90	0.00	30.050 
08:55	44.1	41.3	44.1	88	40.8	5	10	112	0.00	30.050 
09:00	44.2	41.4	44.2	88	40.9	5	11	112	0.00	30.049 
09:05	44.2	41.4	44.2	88	40.9	5	11	112	0.00	30.049 
09:10	44.2	42.2	44.2	88	40.9	4	9	112	0.00	30.049 
09:15	44.3	42.3	44.3	88	41.0	4	8	112	0.00	30.048 
09:20	44.3	42.3	44.3	88	41.0	4	8	90	0.00	30.048 
09:25	44.5	41.8	44.5	88	41.2	5	11	112	0.00	30.048 
09:30	44.5	41.8	44.5	88	41.2	5	10	112	0.00	30.043 
09:35	44.6	42.6	44.6	88	41.3	4	7	112	0.00	30.043 
09:40	44.6	41.9	44.6	88	41.3	5	10	112	0.00	30.043 
09:45	44.8	42.1	44.8	88	41.5	5	11	112	0.00	30.038 
09:50	44.9	43.0	44.9	88	41.6	4	7	112	0.00	30.038 
09:55	45.1	42.5	45.1	87	41.5	5	13	112	0.00	30.038 
10:00	45.4	42.8	45.4	86	41.5	5	11	112	0.00	30.035 
10:05	45.5	43.7	45.5	86	41.6	4	10	112	0.00	30.035 
10:10	45.7	43.2	45.7	86	41.8	5	10	112	0.00	30.035 
10:15	45.8	44.0	45.8	86	41.9	4	8	112	0.00	30.035 
10:20	46.1	44.4	46.1	85	41.8	4	11	112	0.00	30.035 
10:25	46.2	46.2	46.2	85	41.9	3	7	112	0.00	30.035 
10:30	46.5	44.8	46.5	84	41.9	4	7	112	0.00	30.030 
10:35	46.8	45.2	46.8	83	41.9	4	9	112	0.00	30.030 
10:40	47.0	44.7	47.0	83	42.1	5	12	112	0.00	30.030 
10:45	47.3	45.8	47.3	82	42.1	4	8	112	0.00	30.028 
10:50	47.6	47.6	47.6	82	42.4	3	9	112	0.00	30.028 
10:55	47.9	46.4	47.9	80	42.0	4	11	112	0.00	30.028 
11:00	47.9	46.4	47.9	81	42.4	4	9	112	0.00	30.015 
11:05	48.2	48.2	48.2	80	42.3	3	7	112	0.00	30.015 
11:10	48.2	48.2	48.2	79	42.0	3	7	90	0.00	30.015 
11:15	48.3	48.3	48.3	78	41.8	3	10	112	0.00	30.017 
11:20	48.6	48.6	48.6	76	41.4	3	7	90	0.00	30.017 
11:25	48.8	48.8	48.8	74	40.9	3	7	112	0.00	30.017 
11:30	48.9	47.6	48.9	72	40.3	4	11	90	0.00	30.000 
11:35	49.2	49.2	49.2	73	40.9	3	7	90	0.00	30.000 
11:40	49.5	49.5	49.5	71	40.5	3	9	90	0.00	30.000 
11:45	49.8	48.6	49.8	72	41.1	4	10	90	0.00	30.001 
11:50	49.8	48.6	49.8	71	40.8	4	10	90	0.00	30.001 
11:55	49.6	47.7	49.6	71	40.6	5	12	90	0.00	30.001 
12:00	49.6	48.4	49.6	71	40.6	4	9	90	0.00	29.998 
12:05	49.8	49.8	49.8	71	40.8	3	7	112	0.00	29.998 
12:10	49.9	48.8	49.9	71	40.9	4	10	90	0.00	29.998 
12:15	50.1	50.1	50.1	71	41.1	3	7	112	0.00	29.984 
12:20	50.4	50.4	50.4	71	41.4	4	9	90	0.00	29.984 
12:25	50.4	50.4	50.4	71	41.4	3	7	90	0.00	29.984 
12:30	50.5	50.5	50.5	70	41.1	3	10	112	0.00	29.972 
12:35	50.7	50.7	50.7	71	41.6	5	10	112	0.00	29.972 
12:40	51.0	51.0	51.0	69	41.2	4	10	68	0.00	29.972 
12:45	51.4	51.4	51.4	71	42.3	4	14	112	0.00	29.953 
12:50	51.9	51.9	51.9	70	42.4	5	11	112	0.00	29.953 
12:55	52.5	52.5	52.5	70	43.0	6	12	112	0.00	29.953 
13:00	53.5	53.5	53.5	66	42.4	4	11	90	0.00	29.943 
13:05	53.2	53.2	53.2	68	42.9	4	12	90	0.00	29.943 
13:10	53.1	53.1	53.1	66	42.0	4	7	90	0.00	29.943 
13:15	53.2	53.2	53.2	67	42.5	3	12	112	0.00	29.947 
13:20	53.8	53.8	53.8	66	42.7	5	9	90	0.00	29.947 
13:25	54.4	54.4	54.4	65	42.9	4	12	90	0.00	29.947 
13:30	53.9	53.9	53.9	67	43.2	6	14	90	0.00	29.938 
13:35	54.5	54.5	54.5	69	44.5	4	10	90	0.00	29.938 
13:40	54.8	54.8	54.8	65	43.3	4	12	90	0.00	29.938 
13:45	54.8	54.8	54.8	65	43.3	4	10	90	0.00	29.952 
13:50	54.8	54.8	54.8	66	43.7	5	13	90	0.00	29.952 
13:55	55.0	55.0	55.0	67	44.2	3	9	90	0.00	29.952 
14:00	55.0	55.0	55.0	66	43.9	4	10	112	0.00	29.922 
14:05	55.1	55.1	55.1	67	44.3	4	8	90	0.00	29.922 
14:10	55.1	55.1	55.1	67	44.3	4	10	112	0.00	29.922 
14:15	55.0	55.0	55.0	66	43.9	4	11	90	0.00	29.903 
14:20	54.7	54.7	54.7	67	44.0	4	9	90	0.00	29.903 
14:25	54.4	54.4	54.4	67	43.7	4	13	112	0.00	29.903 
14:30	53.9	53.9	53.9	67	43.2	5	10	112	0.00	29.879 
14:35	53.8	53.8	53.8	68	43.5	5	10	112	0.00	29.879 
14:40	53.8	53.8	53.8	71	44.6	3	11	112	0.00	29.879 
14:45	53.8	53.8	53.8	72	45.0	3	9	112	0.00	29.863 
14:50	53.9	53.9	53.9	70	44.3	4	10	112	0.00	29.863 
14:55	54.1	54.1	54.1	69	44.2	6	13	112	0.00	29.863 
15:00	54.4	54.4	54.4	69	44.4	6	11	112	0.00	29.855 
15:05	54.5	54.5	54.5	69	44.5	4	7	112	0.00	29.855 
15:10	54.7	54.7	54.7	69	44.7	3	7	90	0.00	29.855 
15:15	54.8	54.8	54.8	69	44.8	3	7	90	0.00	29.862 
15:20	54.8	54.8	54.8	69	44.8	4	9	90	0.00	29.862 
15:25	54.7	54.7	54.7	69	44.7	4	8	90	0.00	29.862 
15:30	54.5	54.5	54.5	69	44.5	4	9	90	0.00	29.864 
15:35	54.4	54.4	54.4	70	44.8	5	13	90	0.00	29.864 
15:40	54.1	54.1	54.1	72	45.3	5	12	90	0.00	29.864 
15:45	53.9	53.9	53.9	75	46.2	3	9	90	0.00	29.853 
15:50	53.5	53.5	53.5	77	46.5	3	6	90	0.01	29.853 
15:55	53.1	53.1	53.1	78	46.4	4	7	90	0.01	29.853 
16:00	52.8	52.8	52.8	80	46.8	3	7	90	0.02	29.834 
16:05	52.5	52.5	52.5	82	47.2	2	5	112	0.01	29.834 
16:10	52.2	52.2	52.2	82	46.9	3	12	112	0.02	29.834 
16:15	52.0	52.0	52.0	85	47.6	4	9	112	0.02	29.814 
16:20	51.9	51.9	51.9	85	47.5	3	7	112	0.01	29.814 
16:25	51.7	51.7	51.7	86	47.6	2	6	68	0.01	29.814 
16:30	51.9	51.9	51.9	87	48.2	4	9	90	0.00	29.806 
16:35	51.9	51.9	51.9	86	47.8	2	5	112	0.00	29.806 
16:40	52.0	52.0	52.0	86	47.9	3	7	90	0.00	29.806 
16:45	52.0	52.0	52.0	87	48.3	3	6	90	0.01	29.800 
16:50	52.0	52.0	52.0	87	48.3	4	9	90	0.01	29.800 
16:55	52.0	52.0	52.0	87	48.3	4	10	90	0.00	29.800 
17:00	52.2	52.2	52.2	87	48.4	4	9	90	0.01	29.795 
17:05	52.3	52.3	52.3	90	49.5	4	11	90	0.00	29.795 
17:10	52.5	52.5	52.5	87	48.7	3	8	90	0.00	29.795 
17:15	52.5	52.5	52.5	87	48.7	3	6	90	0.00	29.792 
17:20	52.5	52.5	52.5	88	49.0	2	7	112	0.00	29.792 
17:25	52.5	52.5	52.5	87	48.7	3	10	112	0.01	29.792 
17:30	52.6	52.6	52.6	88	49.1	3	6	112	0.00	29.792 
17:35	52.8	52.8	52.8	88	49.3	2	5	90	0.00	29.792 
17:40	52.8	52.8	52.8	88	49.3	3	5	68	0.00	29.792 
17:45	52.8	52.8	52.8	88	49.3	2	5	90	0.00	29.779 
17:50	52.9	52.9	52.9	87	49.1	3	9	112	0.00	29.779 
17:55	52.9	52.9	52.9	88	49.4	2	6	112	0.00	29.779 
18:00	52.9	52.9	52.9	87	49.1	3	6	112	0.00	29.774 
18:05	52.9	52.9	52.9	87	49.1	3	7	90	0.00	29.774 
18:10	52.9	52.9	52.9	87	49.1	2	5	112	0.00	29.774 
18:15	52.8	52.8	52.8	87	49.0	3	7	112	0.00	29.769 
18:20	52.6	52.6	52.6	88	49.1	3	7	90	0.00	29.769 
18:25	52.5	52.5	52.5	88	49.0	3	10	90	0.01	29.769 
18:30	52.3	52.3	52.3	89	49.2	3	8	90	0.00	29.746 
18:35	52.2	52.2	52.2	90	49.4	3	9	112	0.00	29.746 
18:40	52.0	52.0	52.0	91	49.5	4	7	112	0.01	29.746 
18:45	51.9	51.9	51.9	91	49.4	6	14	112	0.00	29.718 
18:50	51.9	51.9	51.9	92	49.6	4	10	112	0.00	29.718 
18:55	51.9	51.9	51.9	92	49.6	3	9	112	0.00	29.718 
19:00	51.9	51.9	51.9	92	49.6	3	8	112	0.00	29.717 
19:05	51.9	51.9	51.9	92	49.6	3	7	112	0.00	29.717 
19:10	52.0	52.0	52.0	92	49.7	2	7	112	0.00	29.717 
19:15	52.2	52.2	52.2	92	49.9	4	7	112	0.00	29.714 
19:20	52.3	52.3	52.3	92	50.0	3	5	90	0.00	29.714 
19:25	52.5	52.5	52.5	91	49.9	3	6	112	0.00	29.714 
19:30	52.5	52.5	52.5	91	49.9	3	6	112	0.00	29.705 
19:35	52.6	52.6	52.6	90	49.7	4	7	112	0.00	29.705 
19:40	52.6	52.6	52.6	90	49.7	3	7	112	0.00	29.705 
19:45	52.6	52.6	52.6	89	49.4	4	10	112	0.00	29.685 
19:50	52.6	52.6	52.6	89	49.4	4	10	112	0.00	29.685 
19:55	52.5	52.5	52.5	89	49.4	3	6	112	0.00	29.685 
20:00	52.3	52.3	52.3	90	49.5	4	9	112	0.00	29.668 
20:05	52.3	52.3	52.3	89	49.2	5	9	112	0.00	29.668 
20:10	52.5	52.5	52.5	88	49.0	4	8	112	0.00	29.668 
20:15	52.6	52.6	52.6	88	49.1	4	9	112	0.00	29.666 
20:20	52.6	52.6	52.6	87	48.8	4	6	112	0.00	29.666 
20:25	52.8	52.8	52.8	86	48.7	4	9	112	0.00	29.666 
20:30	52.9	52.9	52.9	86	48.8	4	10	112	0.00	29.666 
20:35	52.9	52.9	52.9	86	48.8	3	8	112	0.00	29.666 
20:40	52.9	52.9	52.9	86	48.8	4	7	112	0.00	29.666 
20:45	52.9	52.9	52.9	86	48.8	4	11	112	0.00	29.673 
20:50	52.8	52.8	52.8	87	49.0	4	10	112	0.00	29.673 
20:55	52.8	52.8	52.8	87	49.0	3	9	112	0.00	29.673 
21:00	52.8	52.8	52.8	87	49.0	4	6	112	0.00	29.676 
21:05	52.6	52.6	52.6	87	48.8	4	7	112	0.00	29.676 
21:10	52.5	52.5	52.5	88	49.0	4	6	112	0.00	29.676 
21:15	52.6	52.6	52.6	88	49.1	3	6	112	0.00	29.666 
21:20	52.6	52.6	52.6	88	49.1	3	5	112	0.00	29.666 
21:25	52.6	52.6	52.6	88	49.1	2	4	90	0.00	29.666 
21:30	52.5	52.5	52.5	88	49.0	2	4	112	0.00	29.666 
21:35	52.6	52.6	52.6	87	48.8	2	5	90	0.00	29.666 
21:40	52.8	52.8	52.8	87	49.0	2	4	90	0.00	29.666 
21:45	52.8	52.8	52.8	87	49.0	3	6	90	0.00	29.646 
21:50	52.8	52.8	52.8	87	49.0	3	5	90	0.00	29.646 
21:55	52.8	52.8	52.8	87	49.0	3	5	112	0.00	29.646 
22:00	52.6	52.6	52.6	87	48.8	2	4	90	0.00	29.632 
22:05	52.6	52.6	52.6	87	48.8	3	5	90	0.00	29.632 
22:10	52.6	52.6	52.6	87	48.8	3	4	90	0.00	29.632 
22:15	52.8	52.8	52.8	87	49.0	2	5	90	0.00	29.622 
22:20	52.9	52.9	52.9	86	48.8	3	5	112	0.00	29.622 
22:25	53.2	53.2	53.2	86	49.1	2	3	112	0.00	29.622 
22:30	53.2	53.2	53.2	87	49.4	3	8	112	0.08	29.625 
22:35	53.1	53.1	53.1	88	49.6	5	15	90	0.03	29.625 
22:40	52.9	52.9	52.9	90	50.0	4	9	90	0.04	29.625 
22:45	52.8	52.8	52.8	91	50.2	4	7	112	0.02	29.600 
22:50	52.8	52.8	52.8	91	50.2	2	5	112	0.00	29.600 
22:55	52.8	52.8	52.8	91	50.2	1	3	90	0.03	29.600 
23:00	52.8	52.8	52.8	92	50.5	2	4	90	0.01	29.601 
23:05	52.8	52.8	52.8	91	50.2	3	7	90	0.00	29.601 
23:10	52.9	52.9	52.9	91	50.3	2	5	112	0.01	29.601 
23:15	52.9	52.9	52.9	91	50.3	3	5	112	0.00	29.584 
23:20	52.9	52.9	52.9	90	50.0	5	9	112	0.00	29.584 
23:25	52.9	52.9	52.9	90	50.0	5	12	90	0.00	29.584 
23:30	52.8	52.8	52.8	90	49.9	4	6	90	0.00	29.571 
23:35	52.8	52.8	52.8	90	49.9	3	6	112	0.00	29.571 
23:40	52.8	52.8	52.8	91	50.2	1	4	112	0.00	29.571 
23:45	52.8	52.8	52.8	91	50.2	1	3	248	0.05	29.606 
23:50	52.9	52.9	52.9	92	50.6	2	5	112	0.01	29.606 
23:55	53.1	53.1	53.1	91	50.5	2	3	90	0.00	29.606 
20060403 00:00	53.3	53.3	53.3	92	51.0	2	4	90	0.00	29.582 
20060403 00:05	53.3	53.3	53.3	92	51.0	1	3	112	0.00	29.582 
20060403 00:10	53.3	53.3	53.3	92	51.0	0	3	112	0.00	29.582 
20060403 00:15	53.3	53.3	53.3	92	51.0	0	1	112	0.00	29.557 
20060403 00:20	53.2	53.2	53.2	92	50.9	0	0	---	0.00	29.557 
20060403 00:25	53.1	53.1	53.1	92	50.8	0	1	112	0.00	29.557 
20060403 00:30	52.9	52.9	52.9	92	50.6	0	0	---	0.01	29.550 
20060403 00:35	52.9	52.9	52.9	92	50.6	0	1	112	0.00	29.550 
20060403 00:40	52.8	52.8	52.8	93	50.8	0	2	112	0.00	29.550 
20060403 00:45	52.8	52.8	52.8	93	50.8	0	0	---	0.00	29.534 
20060403 00:50	52.8	52.8	52.8	93	50.8	1	3	112	0.00	29.534 
20060403 00:55	53.1	53.1	53.1	94	51.4	2	3	248	0.00	29.534 

CoCoRaHS
IN-AL-39
A2 Web Hosting
Creative Commons License
GoDaddy
Look for:

loaded 2017-12-12 02:03:14 • last modified 2010-11-18 10:43:29
Privacy PolicyDisclaimer
• wx.awcolley.com is powered by PmWiki v.2002016 •
• all content (unless otherwise noted) © 2017 A W Colley